Preview of NWS' New Version of Forecast
This preview is not operational and should not be used for support decisions.

Regional Weather Roundup (RWR)

Issued by National Weather Service (NWS)

                            
000
ASUS43 KLSX 220207
RWRMO 

WEATHER SUMMARY FOR MISSOURI
NATIONAL WEATHER SERVICE SPRINGFIELD MO
900 PM CDT SAT SEP 21 2019

NOTE: "FAIR" INDICATES FEW OR NO CLOUDS BELOW 12,000 FEET WITH NO
       SIGNIFICANT WEATHER AND/OR OBSTRUCTIONS TO VISIBILITY.
       CURRENT SKY AND/OR WEATHER CONDITIONS ARE NOT AVAILABLE FOR
       CHILLICOTHE AND FARMINGTON.

MOZ001>031-035>038-043-044-053-054-220300-
...NORTHERN AND WESTERN MISSOURI...
  
CITY           SKY/WX    TMP DP  RH WIND       PRES   REMARKS
KANSAS CTY INT PTCLDY    73  70  90 S14       29.91F                  
KANSAS C DTWN  PTCLDY    76  69  79 S9G17     29.91F                  
LEE'S SUMMIT   PTCLDY    75  68  78 S13G23    29.93F                  
ST JOSEPH      CLOUDY    74  69  85 S7        29.90R                  
CHILLICOTHE      N/A     73  70  90 S8        29.94F                  
KIRKSVILLE     CLEAR     73  69  87 S8        29.97F                  
     
$$
MOZ066>068-077>081-088>096-101>105-220300-
...SOUTHWEST MISSOURI...
  
CITY           SKY/WX    TMP DP  RH WIND       PRES   REMARKS
SPRINGFIELD    CLEAR     77  66  68 S12       30.04R                  
JOPLIN         CLEAR     77  68  73 S12       30.00S                  
BRANSON        CLEAR     73  68  83 SE8       30.09R                  
               
$$
MOZ032>034-039>042-045>050-055>058-069>072-220300-
...CENTRAL MISSOURI...  
  
CITY           SKY/WX    TMP DP  RH WIND       PRES   REMARKS
COLUMBIA       CLEAR     74  69  85 SE3       30.01R                  
JEFFERSON CITY CLEAR     75  72  90 SE5       29.99F                  
ROLLA          CLEAR     77  68  73 S12G24    30.04S                  
SEDALIA        PTCLDY    70  69  97 S7        29.98S                  
WHITEMAN AFB   MOCLDY    72  72 100 S8        29.92S                  
WARRENSBURG    MOCLDY    72  68  88 S7        29.95S                  
OSAGE BEACH    CLEAR     76  69  79 S7        30.02S                  
               
$$
MOZ051-052-059>065-220300-
...EAST CENTRAL MISSOURI...
  
CITY           SKY/WX    TMP DP  RH WIND       PRES   REMARKS
ST LOUIS INTL  MOCLDY    80  66  62 S12       30.05S                  
SPIRIT OF STL  CLEAR     80  68  66 S6        30.03R                  
ST CHARLES       N/A    N/A N/A N/A MISG      30.03S                  
                   
$$
MOZ072>076-082>087-097>100-106>115-220300-
...SOUTH CENTRAL AND SOUTHEAST MISSOURI...
  
CITY           SKY/WX    TMP DP  RH WIND       PRES   REMARKS
CAPE GIRARDEAU FAIR      75  60  59 S6        30.10R                  
FARMINGTON     CLEAR     74  68  81 S7        30.11R                  
POPLAR BLUFF   FAIR      74  64  71 S6        30.09R                  
WEST PLAINS    CLEAR     75  64  68 S8        30.11R                  
                                       
$$